LRCK Weather Reports


Display with metric or nautical units.
time (UTC)temp
F
wind
direction
speed
MPH
gust
MPH
rain 1hr
in
rain 24hr
in
rain mn
in
humidity
%
barometer
mb
20260509093316 61 110 9.0 0.0 0.00 0.00 0.00 83 1015.0
20260509091943 63 100 7.0 0.0 0.00 0.00 0.00 77 1016.0
20260509090318 63 100 7.0 0.0 0.00 0.00 0.00 77 1016.0
20260509084817 63 120 7.0 0.0 0.00 0.00 0.00 83 1016.0
20260509083317 63 120 7.0 0.0 0.00 0.00 0.00 83 1016.0
20260509081849 61 100 6.0 0.0 0.00 0.00 0.00 88 1016.0
20260509080317 61 100 6.0 0.0 0.00 0.00 0.00 88 1016.0
20260509074817 59 110 7.0 0.0 0.00 0.00 0.00 94 1016.0
20260509073317 59 110 7.0 0.0 0.00 0.00 0.00 94 1016.0
20260509071817 61 80 6.0 0.0 0.00 0.00 0.00 83 1016.0
20260509070317 61 80 6.0 0.0 0.00 0.00 0.00 83 1016.0
20260509064817 61 80 7.0 0.0 0.00 0.00 0.00 83 1015.0
20260509063318 61 80 7.0 0.0 0.00 0.00 0.00 83 1015.0
20260509061817 59 80 7.0 0.0 0.00 0.00 0.00 94 1015.0
20260509060317 0 0.0 0.0 0.00 0.00 0.00
20260509053317 55 80 5.0 0.0 0.00 0.00 0.00 100 1015.0
20260509050317 55 90 5.0 0.0 0.00 0.00 0.00 100 1015.0
20260509043317 54 100 5.0 0.0 0.00 0.00 0.00 100 1015.0
20260509041817 54 120 5.0 0.0 0.00 0.00 0.00 100 1015.0
20260509040317 54 120 5.0 0.0 0.00 0.00 0.00 100 1015.0
20260509034817 54 120 6.0 0.0 0.00 0.00 0.00 100 1015.0
20260509033317 54 120 6.0 0.0 0.00 0.00 0.00 100 1015.0
20260509030317 52 100 7.0 0.0 0.00 0.00 0.00 100 1015.0
20260509024816 52 100 6.0 0.0 0.00 0.00 0.00 100 1015.0
20260509023317 52 100 6.0 0.0 0.00 0.00 0.00 100 1015.0
20260509020317 52 60 5.0 0.0 0.00 0.00 0.00 100 1015.0
20260509014817 52 80 3.0 0.0 0.00 0.00 0.00 100 1015.0
20260509013317 52 80 3.0 0.0 0.00 0.00 0.00 100 1015.0
20260509011817 52 100 5.0 0.0 0.00 0.00 0.00 100 1015.0
20260509010317 52 100 5.0 0.0 0.00 0.00 0.00 100 1015.0
20260509004817 52 130 3.0 0.0 0.00 0.00 0.00 100 1015.0
20260509003317 52 130 3.0 0.0 0.00 0.00 0.00 100 1015.0
20260509001814 52 2.0 0.0 0.00 0.00 0.00 100 1015.0
20260509000318 52 2.0 0.0 0.00 0.00 0.00 100 1015.0
20260508234817 52 2.0 0.0 0.00 0.00 0.00 100 1015.0
20260508233317 52 2.0 0.0 0.00 0.00 0.00 100 1015.0
20260508231817 52 130 5.0 0.0 0.00 0.00 0.00 100 1016.0
20260508230317 52 130 5.0 0.0 0.00 0.00 0.00 100 1016.0
20260508224817 52 120 6.0 0.0 0.00 0.00 0.00 100 1016.0
20260508223317 52 120 6.0 0.0 0.00 0.00 0.00 100 1016.0
20260508221817 52 110 7.0 0.0 0.00 0.00 0.00 100 1016.0
20260508220317 52 110 7.0 0.0 0.00 0.00 0.00 100 1016.0
20260508214816 52 110 8.0 0.0 0.00 0.00 0.00 100 1016.0
20260508213317 52 110 8.0 0.0 0.00 0.00 0.00 100 1016.0
20260508211817 52 110 7.0 0.0 0.00 0.00 0.00 100 1016.0
20260508210317 52 110 7.0 0.0 0.00 0.00 0.00 100 1016.0
20260508200317 52 120 8.0 0.0 0.00 0.00 0.00 100 1016.0
20260508193317 52 110 8.0 0.0 0.00 0.00 0.00 100 1016.0
20260508190317 52 110 10.0 0.0 0.00 0.00 0.00 100 1016.0
20260508184817 52 100 9.0 0.0 0.00 0.00 0.00 100 1015.0
20260508183317 52 100 9.0 0.0 0.00 0.00 0.00 100 1015.0
20260508181820 52 110 9.0 0.0 0.00 0.00 0.00 100 1015.0
20260508180317 52 110 9.0 0.0 0.00 0.00 0.00 100 1015.0
20260508173317 52 120 9.0 0.0 0.00 0.00 0.00 100 1015.0
20260508171817 54 110 9.0 0.0 0.00 0.00 0.00 94 1015.0
20260508170317 54 110 9.0 0.0 0.00 0.00 0.00 94 1015.0
20260508164817 54 120 10.0 0.0 0.00 0.00 0.00 94 1016.0
20260508163318 54 120 10.0 0.0 0.00 0.00 0.00 94 1016.0
20260508161817 54 140 10.0 0.0 0.00 0.00 0.00 94 1016.0
20260508160317 54 140 10.0 0.0 0.00 0.00 0.00 94 1016.0
20260508154818 55 100 10.0 0.0 0.00 0.00 0.00 88 1015.0
20260508153317 55 100 10.0 0.0 0.00 0.00 0.00 88 1015.0
20260508151817 57 110 10.0 0.0 0.00 0.00 0.00 82 1016.0
20260508150317 57 110 10.0 0.0 0.00 0.00 0.00 82 1016.0
20260508144818 59 110 11.0 0.0 0.00 0.00 0.00 77 1016.0
20260508143317 59 110 11.0 0.0 0.00 0.00 0.00 77 1016.0
20260508141817 59 120 11.0 0.0 0.00 0.00 0.00 77 1016.0
20260508140317 59 120 11.0 0.0 0.00 0.00 0.00 77 1016.0
20260508134933 59 130 11.0 0.0 0.00 0.00 0.00 77 1016.0
20260508133317 59 130 11.0 0.0 0.00 0.00 0.00 77 1016.0
20260508131817 59 120 11.0 0.0 0.00 0.00 0.00 82 1016.0
20260508130318 59 120 11.0 0.0 0.00 0.00 0.00 82 1016.0
20260508124816 59 110 11.0 0.0 0.00 0.00 0.00 82 1017.0
20260508123317 59 110 11.0 0.0 0.00 0.00 0.00 82 1017.0
20260508121825 61 130 9.0 0.0 0.00 0.00 0.00 77 1017.0
20260508120316 61 130 9.0 0.0 0.00 0.00 0.00 77 1017.0
20260508114817 61 120 10.0 0.0 0.00 0.00 0.00 77 1017.0
20260508113317 61 120 10.0 0.0 0.00 0.00 0.00 77 1017.0
20260508111817 61 120 10.0 0.0 0.00 0.00 0.00 77 1016.0
20260508110317 61 120 10.0 0.0 0.00 0.00 0.00 77 1016.0
20260508104819 63 120 10.0 0.0 0.00 0.00 0.00 77 1017.0
20260508103332 63 110 10.0 0.0 0.00 0.00 0.00 73 1017.0
20260508101818 63 110 10.0 0.0 0.00 0.00 0.00 73 1017.0
20260508100317 63 110 10.0 0.0 0.00 0.00 0.00 73 1017.0
20260508094817 63 110 10.0 0.0 0.00 0.00 0.00 73 1017.0